Location: Unspecified
(0.0000°N, 0.0000°E)
Time: 10:27:25
(UTC+00:00)

Explorer 11/Cluster Stage 4 - All Passes

Search period start: 28 May 2017 00:00
Search period end: 07 June 2017 00:00
Orbit: 467 x 1263 km, 28.8° (Epoch: 27 May)

Date Brightness Start Highest point End Pass type
(mag) Time Alt. Az. Time Alt. Az. Time Alt. Az.
28 May - 07:34:10 10° SW 07:37:49 79° SSE 07:41:55 10° ENE daylight
28 May - 09:23:44 10° WNW 09:26:25 16° NNW 09:29:22 10° NNE daylight
28 May - 16:44:06 10° NNW 16:49:30 19° NNE 16:55:01 10° ENE daylight
28 May - 18:31:24 10° NW 18:39:27 55° NNE 18:47:12 10° ESE visible
28 May - 20:21:03 10° WNW 20:28:59 51° SSW 20:36:04 10° SE visible
28 May - 22:14:24 10° WSW 22:18:25 15° SSW 22:22:08 10° S visible
29 May - 05:37:55 10° S 05:39:41 13° SSE 05:41:26 10° ESE daylight
29 May - 07:24:19 10° WSW 07:27:55 74° NNW 07:31:52 10° NE daylight
29 May - 09:14:54 10° NW 09:16:34 12° NNW 09:18:21 10° N daylight
29 May - 16:33:36 10° NNW 16:39:23 22° NNE 16:45:27 10° ENE daylight
29 May - 18:21:05 10° NW 18:29:13 64° NNE 18:37:11 10° ESE visible
29 May - 20:11:00 10° W 20:18:45 44° SSW 20:25:50 10° SE visible
29 May - 22:05:01 10° SW 22:08:24 13° SSW 22:11:34 10° S visible
30 May - 05:27:15 10° SSW 05:29:48 17° SSE 05:32:17 10° ESE visible
30 May - 07:14:31 10° WSW 07:18:02 51° NNW 07:21:46 10° NE daylight
30 May - 16:23:09 10° NNW 16:29:15 25° NNE 16:35:46 10° E daylight
30 May - 18:10:49 10° NW 18:18:56 75° NNE 18:27:06 10° ESE visible
30 May - 20:01:01 10° W 20:08:32 38° SSW 20:15:33 10° SE visible
30 May - 21:55:52 10° SW 21:58:24 12° SSW 22:00:49 10° S visible
31 May - 05:16:49 10° SSW 05:19:56 23° SSE 05:22:53 10° E visible
31 May - 07:04:47 10° W 07:08:08 36° NNW 07:11:36 10° NE daylight
31 May - 16:12:46 10° NNW 16:19:05 29° NNE 16:25:57 10° E daylight
31 May - 18:00:37 10° WNW 18:08:40 86° NNE 18:16:57 10° ESE daylight
31 May - 19:51:07 10° W 19:58:20 33° SSW 20:05:13 10° SSE visible
31 May - 21:47:20 10° SSW 21:48:26 10° SSW 21:49:30 10° SSW visible
01 Jun - 05:06:29 10° SW 05:10:04 31° SSE 05:13:21 10° E visible
01 Jun - 06:55:08 10° W 06:58:15 26° NNW 07:01:23 10° NNE daylight
01 Jun - 16:02:27 10° NNW 16:08:54 33° NNE 16:16:05 10° E daylight
01 Jun - 17:50:28 10° WNW 17:58:24 82° SSW 18:06:44 10° SE daylight
01 Jun - 19:41:18 10° W 19:48:09 28° SSW 19:54:48 10° SSE visible
02 Jun - 04:56:14 10° SW 05:00:11 44° SSE 05:03:42 10° ENE visible
02 Jun - 06:45:36 10° W 06:48:21 20° NNW 06:51:05 10° NNE daylight
02 Jun - 14:07:56 10° NNE 14:09:13 11° NNE 14:10:32 10° NE daylight
02 Jun - 15:52:11 10° NW 15:58:42 39° NNE 16:06:07 10° E daylight
02 Jun - 17:40:24 10° WNW 17:48:09 71° SSW 17:56:27 10° SE daylight
02 Jun - 19:31:35 10° WSW 19:38:00 25° SSW 19:44:21 10° SSE visible
03 Jun - 02:59:24 10° S 03:01:24 12° SSE 03:03:17 10° SE visible
03 Jun - 04:46:02 10° SW 04:50:17 63° SSE 04:53:58 10° ENE visible
03 Jun - 06:36:14 10° WNW 06:38:27 15° NNW 06:40:37 10° N daylight
03 Jun - 13:56:52 10° N 13:59:13 12° NNE 14:01:43 10° NE daylight
03 Jun - 15:41:59 10° NW 15:48:30 45° NNE 15:56:04 10° ESE daylight
03 Jun - 17:30:25 10° WNW 17:37:55 60° SSW 17:46:06 10° SE daylight
03 Jun - 19:21:59 10° WSW 19:27:53 21° SSW 19:33:49 10° SSE visible
04 Jun - 02:48:19 10° SSW 02:51:35 17° SSE 02:54:27 10° ESE visible
04 Jun - 04:35:53 10° WSW 04:40:22 87° SSE 04:44:09 10° ENE visible
04 Jun - 06:27:10 10° NW 06:28:32 12° NNW 06:29:53 10° N daylight
04 Jun - 13:46:13 10° N 13:49:12 14° NNE 13:52:27 10° ENE daylight
04 Jun - 15:31:50 10° NW 15:38:17 52° NNE 15:45:57 10° ESE daylight
04 Jun - 17:20:30 10° WNW 17:27:42 51° SSW 17:35:42 10° SE daylight
04 Jun - 19:12:31 10° WSW 19:17:49 19° SSW 19:23:12 10° SSE visible
05 Jun - 02:37:33 10° SSW 02:41:43 22° SSE 02:45:16 10° ESE visible
05 Jun - 04:25:47 10° WSW 04:30:26 69° NNW 04:34:17 10° NE visible
05 Jun - 13:35:45 10° N 13:39:10 16° NNE 13:42:59 10° ENE daylight
05 Jun - 15:21:44 10° NW 15:28:06 62° NNE 15:35:47 10° ESE daylight
05 Jun - 17:10:40 10° W 17:17:32 43° SSW 17:25:13 10° SE daylight
05 Jun - 19:03:11 10° WSW 19:07:47 16° SSW 19:12:29 10° SSE visible
06 Jun - 02:26:56 10° SSW 02:31:49 28° SSE 02:35:52 10° E visible
06 Jun - 04:15:44 10° WSW 04:20:28 52° NNW 04:24:23 10° NE visible
06 Jun - 13:25:22 10° N 13:29:07 18° NNE 13:33:22 10° ENE daylight
06 Jun - 15:11:42 10° NW 15:17:55 73° NNE 15:25:33 10° ESE daylight
06 Jun - 17:00:56 10° W 17:07:24 36° SSW 17:14:42 10° SE daylight
06 Jun - 18:54:03 10° SW 18:57:48 14° SSW 19:01:38 10° S visible
